Theta_e
311 311 312 312 312 312 312 312 310 308 307 305 305 306 306 304 303 304 304 304 305 305 305 305 305 306 306 306 306 306 306 307 307 307 307 307 307 307 306 306 306 306 306 305 305 305 305 307 307 307 309 311 313 314 312 312 315 315 314 313 312 311 309 308 309 311 313 313 313 313 313 312 311 312 313 311 311 310 311 312 312 314 314 315 315
313 312 312 312 312 313 313 313 311 309 307 306 306 306 306 305 304 304 304 304 304 304 305 305 304 305 306 306 306 306 306 306 306 307 306 306 307 307 306 306 306 306 305 305 305 305 305 307 307 307 310 313 313 315 314 313 316 315 314 314 313 313 312 311 310 312 313 312 311 312 312 312 312 312 313 312 311 311 311 310 311 312 312 313 312
314 314 313 313 313 313 313 313 312 310 309 307 306 305 306 306 304 303 304 303 303 304 304 304 304 304 305 305 305 305 305 305 306 306 306 306 306 306 306 306 306 305 305 305 305 304 304 305 306 306 309 311 312 314 314 313 315 315 313 313 313 313 313 312 312 312 313 311 310 311 311 312 312 312 311 311 311 311 311 310 309 309 308 308 307
315 315 315 314 313 313 313 313 313 311 309 308 306 305 305 305 304 303 303 303 302 303 303 304 304 303 304 305 305 305 305 305 305 305 305 306 306 306 306 306 306 306 305 305 304 304 304 303 304 305 305 309 313 314 314 313 314 315 314 313 313 312 312 312 312 313 313 311 310 310 311 312 312 311 310 310 310 311 311 310 309 308 307 306 306
318 317 316 315 315 314 314 313 313 312 310 309 307 306 305 305 304 303 303 302 302 302 303 303 304 303 303 304 304 304 304 304 304 305 305 305 305 305 305 305 305 305 305 304 304 304 304 303 304 303 302 307 313 314 314 313 314 314 314 313 312 312 311 309 311 312 312 312 311 310 311 311 311 310 309 308 308 309 309 309 308 308 308 306 305
322 321 320 318 317 316 315 314 314 313 310 309 308 307 305 304 305 304 303 302 302 302 302 303 303 303 303 303 303 304 304 304 304 304 304 304 304 305 305 305 305 305 305 304 304 303 303 303 302 301 301 305 310 312 313 313 314 314 313 313 311 312 312 309 310 312 312 312 312 311 310 310 309 309 309 308 307 307 307 308 307 307 307 306 305
324 323 323 322 320 318 317 316 315 314 311 309 309 308 306 304 304 304 303 302 302 302 302 302 302 303 303 303 303 303 303 303 304 303 304 304 304 304 304 304 305 304 304 304 304 303 303 303 301 300 300 303 305 308 310 311 311 312 313 312 311 311 311 310 311 311 311 311 310 310 309 309 309 308 307 307 306 306 305 306 306 306 306 306 305
325 325 325 324 322 321 319 317 316 316 313 312 310 308 307 305 304 304 303 302 302 302 301 301 302 302 302 302 302 302 303 303 303 303 303 303 303 304 304 304 304 304 304 304 303 303 303 302 301 299 299 301 302 304 306 307 307 309 311 311 310 310 310 310 310 310 311 310 309 309 309 309 308 307 306 304 304 304 304 304 304 304 304 304 303
326 325 325 325 323 322 321 319 318 317 315 314 312 310 308 306 304 303 303 302 301 301 301 301 301 301 302 302 302 302 302 302 302 302 302 303 303 303 303 303 303 304 304 304 303 303 302 301 300 299 299 300 301 300 301 303 303 306 310 310 309 310 310 309 309 310 310 309 308 308 308 307 307 306 304 302 301 302 302 301 301 301 300 300 300
325 325 325 325 324 323 322 320 319 318 317 316 315 313 310 307 305 303 302 302 301 301 301 301 300 300 301 301 302 302 302 302 302 302 302 302 302 302 302 302 303 303 303 303 303 302 302 301 299 298 298 299 299 299 298 299 300 304 308 308 309 309 309 308 308 308 308 307 306 307 306 306 305 304 302 301 300 300 300 300 300 300 300 300 300
325 324 324 324 324 323 322 321 321 320 319 319 317 315 312 309 307 304 303 302 301 300 300 300 299 300 300 301 301 301 301 301 301 302 301 302 302 302 302 302 302 303 303 303 302 302 301 300 299 298 298 297 297 297 297 297 298 300 306 308 308 308 308 308 306 306 306 305 305 305 305 304 304 303 302 301 300 300 300 300 300 300 300 300 300
324 323 323 323 323 322 322 321 321 321 321 320 318 316 314 312 309 306 304 302 301 300 299 299 299 299 299 300 301 301 301 301 301 301 301 301 301 301 301 301 302 302 302 302 302 302 301 300 299 298 297 296 296 296 295 296 296 297 303 309 309 308 308 307 305 305 305 304 303 302 303 303 303 303 302 301 300 299 300 299 299 299 299 300 300
322 322 321 321 321 321 321 321 321 321 320 320 319 318 316 314 312 309 305 303 301 300 299 299 298 298 299 299 300 300 300 301 301 301 301 301 301 301 301 301 301 301 301 302 302 302 301 300 299 298 297 296 295 296 295 295 295 296 300 307 309 309 308 306 305 303 301 299 299 300 301 302 302 302 302 300 299 299 299 299 299 299 299 299 299
319 319 319 319 319 319 319 319 319 320 320 319 319 318 317 316 314 311 308 304 302 300 300 299 298 298 298 298 299 299 299 300 300 301 301 301 301 301 301 301 301 301 301 301 302 302 301 301 299 298 297 296 295 295 295 294 294 295 298 303 308 309 307 306 304 301 298 297 297 298 299 300 300 300 299 299 298 299 300 300 300 299 299 299 299
315 315 315 315 316 316 317 317 317 318 318 318 318 318 317 316 315 313 310 306 303 301 300 299 299 298 298 298 298 299 299 299 300 300 300 300 301 300 301 301 301 301 301 301 301 301 302 301 300 299 298 297 296 295 295 294 294 294 296 301 306 308 307 305 301 299 298 297 296 296 296 297 297 297 297 297 298 299 301 301 301 300 299 299 299
309 310 311 311 312 313 314 315 315 316 316 316 317 317 317 317 316 315 312 308 304 302 300 299 298 298 298 298 298 298 298 299 300 300 300 300 300 300 301 301 301 301 301 301 301 301 302 302 301 299 298 297 296 295 294 294 294 293 295 300 304 305 306 304 300 298 298 297 296 295 295 296 297 296 296 297 297 299 301 301 300 300 300 300 300
305 305 306 307 308 310 311 312 313 313 314 314 315 315 315 315 315 314 312 310 307 304 301 299 299 299 298 298 298 298 298 299 300 299 299 300 300 300 300 300 301 300 300 300 301 301 301 302 301 300 299 298 296 295 295 294 294 293 294 299 303 303 303 302 299 298 298 297 296 295 295 295 295 296 296 296 297 298 300 300 299 299 299 299 299
303 303 304 304 305 306 307 309 310 311 311 312 312 313 313 313 313 312 311 311 308 304 302 300 299 298 297 298 298 298 299 299 299 299 299 300 300 300 300 300 300 300 300 300 300 301 301 302 302 301 301 300 298 296 295 295 294 294 293 296 301 302 301 300 300 299 297 297 295 294 294 294 295 295 296 296 296 297 298 298 297 297 297 297 298
302 302 302 303 303 303 304 305 307 308 309 310 310 311 311 311 311 310 310 309 308 304 302 301 299 298 297 297 298 297 298 298 299 299 299 299 300 300 300 300 300 300 301 300 300 301 301 301 301 302 302 301 300 298 297 296 295 294 293 293 296 299 299 299 299 299 297 296 294 293 294 294 294 295 295 296 296 296 297 297 296 297 297 297 297
301 301 301 301 302 302 302 303 303 305 306 307 308 308 309 309 309 308 307 307 306 304 303 301 299 299 298 297 297 297 297 297 298 298 299 299 299 300 300 300 300 301 301 301 301 301 301 301 301 301 302 302 302 300 298 297 296 295 294 293 294 295 296 297 297 297 296 295 293 293 293 293 294 295 295 295 296 297 297 297 296 296 296 296 296
301 301 301 300 301 301 301 301 301 302 303 304 305 306 306 307 307 307 306 306 305 304 302 301 300 299 298 298 297 297 297 297 297 298 298 299 299 299 299 300 300 300 301 301 301 301 301 301 300 300 300 301 302 302 300 299 298 296 294 294 294 293 294 294 295 295 294 294 293 293 293 293 294 294 295 296 297 296 296 296 295 296 296 296 296
302 302 301 301 300 300 300 300 300 300 301 301 302 303 303 304 305 305 305 305 304 303 302 301 300 299 298 297 297 297 297 297 297 298 298 298 299 299 299 299 300 300 300 300 301 301 301 301 300 300 300 301 301 301 301 300 299 297 295 294 294 294 294 293 294 294 293 293 293 293 293 293 294 294 294 296 297 295 295 295 295 295 295 295 295
303 303 303 302 301 300 300 299 299 299 299 300 300 300 301 301 302 303 303 304 303 303 302 300 299 299 298 297 297 297 296 297 297 297 297 298 298 299 299 299 299 300 300 300 300 300 300 300 300 300 300 300 300 300 301 300 299 298 296 295 294 294 294 294 294 293 293 293 293 293 294 293 293 294 294 294 295 294 294 294 294 295 295 295 295
302 302 302 302 302 301 300 299 299 298 298 298 299 299 299 299 300 300 301 302 302 302 301 300 299 298 298 297 297 296 296 296 296 297 297 297 298 298 299 299 299 299 299 299 299 299 300 300 299 299 299 299 300 300 300 300 300 299 297 296 295 294 294 294 294 294 293 293 293 293 294 293 293 293 294 294 294 294 294 294 294 294 294 294 294
301 301 301 301 302 302 301 300 299 298 298 298 299 299 299 298 298 299 299 300 301 301 301 300 298 298 297 297 297 296 296 296 296 296 296 297 298 298 298 299 299 299 299 299 299 299 299 299 299 299 299 299 299 299 299 300 300 299 298 296 295 294 294 294 294 294 294 293 293 294 293 293 293 293 294 294 294 294 293 293 294 294 294 294 294
299 300 300 300 300 300 301 301 300 300 299 298 298 298 299 298 298 298 298 298 299 299 300 299 299 298 297 297 297 296 296 296 296 296 296 296 297 298 298 299 299 299 299 299 299 299 299 299 299 299 299 299 299 299 299 300 300 299 298 297 295 294 294 294 294 293 293 293 293 293 293 293 293 293 294 294 294 294 294 294 294 294 294 294 294
297 298 298 299 299 299 299 300 300 300 300 299 299 298 298 298 298 298 298 298 298 298 298 298 299 298 298 297 296 296 296 296 296 296 296 296 296 296 297 298 299 298 298 299 299 299 299 299 299 299 299 299 299 299 299 299 299 299 298 297 295 295 294 294 294 294 293 293 293 293 293 293 293 293 294 294 294 295 295 295 295 295 295 294 294
294 294 295 296 296 297 298 299 299 299 300 300 299 299 298 298 298 298 298 298 297 297 297 297 298 298 298 297 297 296 296 296 296 295 295 296 296 296 296 297 298 298 298 298 298 298 299 299 299 299 299 299 299 299 299 299 299 299 299 298 296 295 294 293 293 293 293 293 293 293 292 293 293 294 294 295 295 296 296 296 296 295 295 294 294
291 292 292 292 293 293 295 296 297 298 299 299 299 299 299 298 298 297 297 297 297 297 297 297 297 297 297 297 297 297 297 296 296 295 295 295 295 296 296 296 297 297 298 298 298 298 298 298 298 298 298 298 298 298 298 298 299 299 299 298 297 295 294 293 293 293 293 293 293 292 292 293 293 294 294 295 296 296 296 296 296 295 295 294 294
289 289 290 290 290 290 291 292 293 294 295 297 298 299 299 299 298 298 297 297 297 297 297 297 297 296 296 296 297 296 296 296 296 296 295 295 295 295 296 295 295 296 297 297 297 297 297 298 298 298 298 298 298 298 298 298 298 299 299 298 298 296 294 293 293 292 292 292 292 292 292 293 293 294 295 296 296 297 296 296 296 295 295 294 294
288 288 288 288 289 289 289 289 290 290 291 292 293 295 296 298 298 298 298 297 297 297 297 296 296 296 296 296 296 296 296 296 296 296 295 295 295 295 295 296 295 295 296 297 297 297 297 297 297 297 297 298 298 298 298 298 298 298 298 298 298 296 294 293 293 292 292 292 291 291 292 293 293 294 295 296 297 297 297 297 297 296 296 295 294
287 287 287 287 287 287 287 288 288 288 288 289 289 290 292 293 295 296 297 297 297 297 297 296 296 295 296 296 296 296 296 296 296 296 296 295 295 294 295 295 295 295 295 296 296 296 296 297 297 297 297 297 298 298 298 298 298 298 298 298 297 296 294 293 293 292 291 291 291 291 292 293 293 294 295 296 296 297 297 297 297 297 296 295 294
287 287 287 287 287 286 286 287 287 287 287 287 288 288 288 289 290 291 293 294 296 297 297 297 296 295 294 294 295 295 295 295 296 296 296 296 295 295 294 294 295 295 295 296 296 296 296 296 296 297 297 297 297 297 297 298 297 297 297 297 297 296 295 294 293 292 291 291 291 291 292 293 293 294 295 296 296 296 297 297 297 297 296 295 294
287 287 287 287 287 287 286 286 286 286 286 286 287 287 287 287 288 288 289 290 291 293 294 296 297 296 295 294 294 294 294 295 295 295 295 295 295 295 295 294 294 294 295 295 296 296 296 296 297 297 297 297 297 297 297 297 297 297 297 297 297 297 296 295 293 292 291 291 291 291 292 292 293 294 294 295 296 296 296 296 296 296 296 295 294
287 287 287 287 287 287 287 287 287 286 286 286 286 286 286 286 287 287 287 287 288 288 289 291 293 294 295 296 295 294 293 293 294 294 294 294 295 295 295 295 294 294 294 294 295 296 296 297 297 297 297 297 297 297 297 297 297 297 297 297 297 297 297 296 294 293 291 291 290 291 291 292 293 293 294 294 295 295 296 296 296 296 296 295 294
287 287 287 287 287 287 287 287 287 287 287 286 286 286 286 286 286 286 286 286 286 287 287 288 288 289 291 293 295 295 294 293 293 293 293 294 294 294 295 295 295 295 294 294 294 294 295 296 297 297 297 297 297 297 297 297 296 296 297 297 296 296 296 296 294 293 292 291 290 290 291 292 292 293 293 294 294 295 295 295 295 296 296 295 294
286 286 286 286 286 286 286 286 286 286 286 286 286 286 286 286 286 286 286 286 286 286 286 286 287 287 287 288 290 292 293 294 294 293 292 292 293 293 294 294 294 294 294 294 293 293 294 294 295 296 297 297 297 297 296 296 296 296 296 296 296 296 296 295 294 293 292 291 290 290 290 291 292 292 293 293 294 294 294 295 295 295 295 295 294
286 286 286 286 286 286 286 286 286 286 286 286 286 286 286 286 286 286 286 286 286 286 286 286 286 286 286 286 287 287 289 291 293 294 294 293 292 292 293 293 293 293 293 293 293 293 293 293 293 294 295 296 296 296 296 296 296 296 296 296 296 296 295 295 294 293 292 291 290 290 290 291 291 292 292 293 293 294 294 294 294 295 295 295 295
285 285 285 285 285 285 285 285 285 285 285 286 286 286 286 286 286 286 286 286 286 286 286 286 286 286 286 286 286 286 286 287 288 290 292 293 293 292 292 292 292 292 292 293 293 293 293 292 292 293 294 294 295 295 295 295 295 295 295 296 296 296 296 295 295 294 293 292 291 290 290 290 291 291 292 292 293 293 293 293 294 294 294 295 295
285 285 285 285 285 285 285 285 285 285 285 285 285 285 285 285 285 285 285 285 285 285 286 286 286 286 286 286 286 286 286 286 286 287 288 290 292 293 293 292 291 291 292 292 292 292 293 293 292 292 292 293 294 294 295 294 294 295 294 295 295 296 296 296 296 296 295 293 292 290 290 290 290 291 291 292 292 293 293 293 293 293 294 294 294
285 285 285 285 285 285 285 285 285 285 284 284 285 284 284 284 285 285 285 285 285 285 285 285 285 285 286 286 286 286 285 285 285 286 286 286 288 290 292 293 291 291 291 291 291 291 292 292 292 291 291 292 293 293 294 294 294 294 294 294 295 295 296 296 296 296 295 294 292 291 290 290 290 290 291 291 292 292 292 293 292 293 293 293 293
284 284 284 284 285 284 285 285 284 284 284 284 284 284 284 284 284 284 284 284 285 285 285 285 285 285 285 285 286 286 286 286 285 285 285 285 286 287 288 291 292 292 291 290 291 291 291 291 291 291 291 291 292 292 293 293 294 294 294 294 295 295 295 295 295 295 295 294 293 291 290 290 290 290 291 291 291 291 292 292 292 292 293 293 293
284 284 284 284 284 284 284 284 284 284 284 284 284 284 284 283 283 283 283 283 283 283 284 284 284 285 285 285 285 285 285 286 286 285 285 285 285 286 286 287 290 292 292 291 290 290 291 291 291 291 291 291 291 291 292 293 293 293 294 294 294 295 295 295 295 295 295 295 294 293 292 291 290 290 290 291 291 291 291 292 292 292 292 292 292
283 283 283 283 283 283 283 283 283 283 283 284 284 283 283 283 283 282 282 282 282 282 283 283 283 284 284 284 284 284 285 285 285 285 285 285 285 285 285 286 287 289 291 292 291 290 290 290 290 290 290 291 291 291 291 292 292 293 293 293 294 294 295 295 295 295 295 295 294 294 294 293 291 290 290 290 290 291 291 291 292 292 292 292 291
281 282 282 282 282 282 282 283 283 283 284 284 284 284 283 283 283 282 282 282 282 282 282 282 283 283 283 283 283 284 284 284 285 285 285 285 285 285 285 285 285 286 288 291 292 292 290 290 290 290 291 290 290 290 290 291 291 292 292 293 293 293 294 295 295 295 296 295 295 295 294 293 292 291 290 290 290 291 291 291 291 291 291 291 291
281 281 282 282 282 282 282 282 282 282 283 284 283 283 282 282 281 280 280 280 280 281 281 281 282 282 283 283 283 283 283 284 284 284 284 285 285 285 285 285 285 285 286 287 290 292 292 290 289 290 291 290 290 290 290 290 290 291 292 292 292 293 293 294 294 295 295 295 295 295 294 294 293 292 291 291 290 290 291 291 291 291 291 291 291
281 281 281 281 281 281 281 280 280 281 282 282 282 281 280 280 279 278 277 278 278 279 280 280 281 281 281 282 283 283 283 283 283 284 284 284 284 284 284 284 284 285 285 285 286 289 291 292 291 291 291 290 290 290 290 290 290 290 291 291 292 292 292 293 293 294 294 294 294 294 294 294 294 293 293 292 290 290 290 290 290 291 291 291 291
280 280 280 280 280 280 280 279 278 279 280 280 279 278 277 277 276 276 276 276 276 277 278 279 279 280 280 281 282 282 283 283 283 283 284 284 284 284 284 284 284 284 284 285 285 286 288 290 292 293 292 290 289 289 289 289 289 289 290 290 290 291 291 292 292 292 293 293 294 294 293 293 294 295 294 292 291 290 290 290 290 290 290 290 290
279 279 279 279 279 278 278 278 276 276 277 278 276 274 274 274 273 273 273 274 274 275 276 277 277 278 278 279 280 281 281 282 283 283 283 283 283 284 284 284 284 284 284 284 285 285 285 287 290 292 293 292 290 289 289 289 289 289 289 289 289 290 290 290 290 291 291 292 293 293 292 293 294 294 293 292 291 290 289 289 289 290 290 290 290
279 278 278 277 278 277 276 275 274 273 274 275 273 271 271 272 271 271 271 272 272 273 274 275 275 275 276 277 278 278 279 280 281 282 282 283 283 284 284 284 284 284 284 284 284 285 285 286 287 289 292 292 291 290 289 289 289 289 288 289 289 289 289 289 290 290 290 291 292 292 292 294 294 291 290 290 289 289 289 289 288 289 289 289 289
277 277 276 275 276 275 273 272 271 270 271 272 271 270 270 270 269 269 270 270 271 271 272 273 273 273 274 275 276 276 277 279 280 281 282 283 283 284 284 284 284 284 284 284 284 284 285 285 286 287 289 291 292 291 290 289 288 288 288 288 289 288 288 289 289 289 288 290 291 291 291 294 293 289 288 289 288 288 288 287 287 287 288 288 288
Wind_Speed
33 32 31 29 28 27 26 23 21 22 22 22 21 19 19 19 20 21 21 20 18 17 17 16 15 14 13 12 11 10 10 9 8 8 8 9 10 10 10 11 12 12 12 13 13 12 11 9 8 6 5 5 4 3 2 2 4 3 3 5 4 4 5 5 6 5 3 4 5 5 5 5 5 5 5 6 7 7 6 7 7 7 7 7 8
34 33 32 31 30 29 28 26 23 23 23 23 23 21 20 20 21 23 23 21 20 19 19 18 17 15 14 14 13 12 11 10 9 9 8 9 10 10 10 11 12 12 13 13 13 12 12 10 8 6 5 5 5 4 2 4 5 4 2 2 1 2 2 3 5 5 4 6 7 5 4 4 5 6 6 7 7 7 8 8 8 9 9 10 11
34 34 33 32 31 30 30 28 26 24 24 24 24 23 22 21 22 23 23 22 21 21 21 20 18 17 16 16 15 14 13 12 11 10 9 10 10 10 10 11 11 12 13 13 13 13 13 11 9 8 7 6 6 5 5 6 5 3 3 2 2 2 1 2 3 4 4 7 7 6 5 4 4 7 7 7 7 6 7 8 8 10 12 12 13
32 33 33 33 32 30 29 29 27 25 25 25 25 24 23 22 23 24 24 24 23 22 23 22 20 19 18 18 17 16 15 14 13 12 11 11 11 10 10 11 11 12 13 13 13 13 13 13 12 12 10 8 7 8 8 7 7 5 4 3 3 2 2 3 3 3 3 4 6 6 5 5 5 6 7 7 7 6 7 8 9 10 11 12 13
29 31 31 31 31 30 29 29 28 27 26 25 25 25 25 24 24 25 26 26 26 25 25 24 23 21 20 20 19 17 16 16 15 13 13 12 11 11 10 10 11 11 12 12 13 14 14 15 14 13 12 11 10 10 9 8 7 7 6 4 4 3 3 4 4 4 3 3 4 5 5 6 7 7 7 8 8 8 8 8 9 9 9 11 12
28 30 30 30 31 31 29 28 28 28 27 26 25 25 26 26 25 25 27 28 28 27 27 26 25 24 23 22 21 19 18 17 16 15 14 13 12 12 11 10 10 11 12 12 13 14 14 15 12 11 13 14 14 14 12 10 9 8 7 6 5 4 3 4 4 4 5 5 4 4 6 6 8 7 7 8 9 9 9 8 8 8 8 9 10
28 30 31 31 31 31 30 28 28 29 28 27 26 27 27 27 27 27 28 29 29 28 28 27 26 25 24 23 22 21 21 20 18 17 16 15 14 13 12 11 11 11 12 12 13 14 14 14 12 12 14 15 16 16 16 15 12 10 9 8 7 6 5 4 5 5 6 7 5 5 7 7 6 8 8 9 9 9 10 9 8 8 7 7 8
29 30 31 31 32 32 31 29 30 30 28 27 27 28 28 28 28 28 29 30 31 30 29 29 28 27 26 25 24 23 23 22 20 19 18 17 16 15 13 11 12 12 12 12 13 14 14 14 13 14 15 17 16 16 17 16 14 12 10 9 9 7 6 5 5 6 5 6 6 6 7 8 7 9 10 10 10 9 9 10 8 7 7 6 6
29 30 30 31 32 32 32 31 31 29 28 28 29 29 29 29 29 29 29 30 32 32 31 30 29 28 28 27 26 25 25 24 22 20 19 19 18 16 14 13 13 12 12 12 13 14 14 14 14 15 16 18 17 16 17 16 14 14 12 12 11 9 8 8 8 7 7 8 8 7 7 9 9 10 10 8 7 7 7 7 6 6 6 6 6
28 29 30 31 31 32 32 32 30 29 29 30 30 31 31 31 31 30 29 30 32 33 32 31 30 30 29 28 28 28 27 26 24 22 22 21 19 17 16 15 14 13 12 13 14 15 15 15 15 16 16 18 18 17 16 16 15 14 13 13 12 11 10 12 13 12 11 9 7 7 8 9 9 9 8 7 7 7 7 6 7 7 7 7 7
28 28 29 31 32 32 33 33 32 31 32 32 32 33 32 32 32 31 30 30 31 33 32 31 31 31 30 30 30 30 29 27 26 25 24 23 21 20 18 16 15 15 14 14 15 15 16 16 15 16 16 17 17 17 16 16 15 14 13 13 12 11 10 10 13 14 12 10 8 8 8 8 7 7 7 8 8 8 8 8 8 8 8 8 7
26 27 29 30 31 32 33 33 34 34 34 34 34 34 34 33 33 32 31 31 31 33 33 32 32 32 31 31 31 30 30 30 29 27 26 25 24 21 19 19 19 17 15 15 15 16 17 16 16 16 17 17 17 17 17 17 17 14 13 13 12 12 11 9 10 10 9 9 8 8 7 7 7 7 7 8 8 8 8 8 9 8 8 8 7
23 25 27 28 30 31 31 32 33 34 35 35 35 35 35 34 33 33 32 32 32 34 35 34 34 33 33 32 32 32 32 32 31 29 29 28 26 23 22 22 21 19 17 17 16 17 17 17 17 17 18 18 17 17 18 17 17 16 15 15 14 13 12 10 9 7 5 6 6 6 6 7 7 8 8 8 8 8 8 8 9 9 9 8 8
21 22 24 25 27 28 29 30 32 33 34 35 35 35 35 34 34 34 33 33 33 34 36 37 37 36 35 33 32 33 34 33 32 32 32 31 28 26 26 25 24 22 20 19 18 18 18 18 18 18 19 18 17 17 17 17 17 17 17 17 16 15 13 11 10 7 6 7 7 8 8 8 9 8 8 8 8 8 7 7 8 9 9 9 8
19 20 21 22 23 25 27 28 30 32 33 34 35 35 36 36 35 35 34 34 33 34 36 38 39 37 34 32 32 31 31 34 35 35 35 33 31 30 29 28 26 24 23 21 20 19 19 19 19 19 19 18 17 17 17 17 17 17 18 19 19 18 14 13 13 9 9 11 10 11 11 10 10 9 9 9 9 8 7 7 7 8 9 8 8
14 16 18 19 20 21 24 26 28 30 31 33 34 34 35 36 36 36 35 35 35 36 37 38 39 38 35 31 28 25 27 32 35 36 35 35 34 33 31 30 29 27 26 24 22 21 20 21 20 20 20 19 18 18 17 17 17 18 19 21 23 21 17 15 16 13 13 14 13 13 13 12 11 11 11 10 10 9 8 8 8 8 8 7 7
8 10 12 14 16 18 20 23 25 27 29 31 32 32 34 35 35 36 36 36 36 37 38 39 40 41 39 34 26 24 29 32 31 30 33 34 34 33 33 32 31 30 28 25 24 23 22 22 21 20 21 20 19 19 19 18 17 18 20 23 26 26 23 21 20 18 17 17 16 16 14 13 13 12 12 12 11 10 9 9 9 8 8 7 7
3 4 6 8 11 14 16 19 22 24 27 29 30 30 32 33 34 35 36 36 36 38 39 39 40 42 43 42 37 33 31 30 27 25 27 31 32 32 32 32 32 31 29 27 26 26 24 23 21 21 21 21 20 20 19 18 18 19 21 23 27 28 28 26 25 23 21 19 18 17 16 14 14 13 12 12 12 11 10 10 9 9 9 8 8
5 3 3 4 6 8 11 15 18 21 24 26 28 29 30 30 32 33 34 34 35 38 40 40 41 43 43 44 45 42 36 32 30 26 23 26 29 30 31 31 30 30 29 28 28 27 26 24 23 23 22 22 21 21 20 19 19 19 20 23 26 28 29 28 28 26 24 21 19 18 17 16 15 13 12 11 10 10 10 10 9 8 9 8 8
8 7 6 4 3 4 7 10 13 17 20 23 25 26 27 28 30 31 32 33 35 38 39 40 42 44 43 43 44 45 43 40 38 33 28 27 28 29 30 29 29 29 28 27 28 27 26 25 24 24 23 22 22 22 22 21 20 20 21 22 25 27 28 28 28 28 26 22 20 20 18 17 16 13 11 10 9 8 9 8 7 8 8 8 9
10 9 8 8 7 5 5 6 8 11 15 19 22 23 25 27 28 29 31 32 34 36 38 40 41 43 43 44 44 44 45 43 41 38 36 33 31 31 31 30 31 31 29 28 28 27 26 26 25 25 25 24 23 23 23 23 23 22 22 23 24 25 26 27 28 27 26 23 21 20 19 17 16 14 11 10 9 8 8 7 7 7 8 8 9
10 9 8 8 7 7 7 6 6 8 11 14 17 20 22 25 26 28 29 31 32 34 36 38 40 42 43 44 45 45 45 45 43 40 39 37 35 35 35 33 34 34 31 30 29 28 27 26 26 26 26 26 24 24 24 24 24 24 24 24 24 24 25 26 27 26 25 23 21 20 19 17 16 15 13 11 10 9 8 8 7 7 8 9 9
11 11 10 9 8 7 7 8 8 8 9 11 13 15 18 21 23 26 28 30 31 32 34 36 38 40 42 44 46 46 46 46 45 43 43 42 40 39 38 37 37 36 34 32 30 29 28 28 27 27 26 27 26 26 25 25 25 24 25 25 25 24 25 25 26 25 25 23 22 21 19 17 16 15 14 12 11 9 8 8 8 8 8 9 9
13 13 13 13 12 10 9 9 10 10 10 11 12 13 15 17 20 23 26 28 30 31 33 35 36 38 41 43 45 47 47 47 46 45 45 45 44 43 41 38 38 37 35 34 31 30 30 30 28 27 27 27 27 27 26 26 26 25 26 27 26 25 25 26 26 25 24 23 22 21 19 18 17 16 15 13 11 10 9 9 10 9 9 10 10
15 15 15 15 14 14 13 12 12 12 12 12 12 13 14 15 17 20 22 25 27 30 33 34 35 36 38 39 42 45 47 46 46 46 46 44 44 44 42 39 39 38 35 34 33 32 32 31 29 28 29 28 28 28 28 28 27 27 27 27 26 25 26 26 26 25 24 24 23 21 20 19 18 17 16 14 13 11 11 11 11 11 11 12 12
15 15 16 15 15 15 15 14 14 14 14 13 13 13 14 15 16 18 20 22 24 27 30 33 34 36 36 37 40 43 46 46 45 46 46 45 45 44 42 40 39 38 36 35 34 35 35 33 31 31 30 29 29 29 28 28 28 28 28 28 27 26 26 26 26 26 25 24 24 22 21 21 20 19 17 16 14 13 13 13 14 14 14 14 14
15 14 14 14 14 15 15 16 16 16 15 15 14 14 15 16 17 18 19 20 22 25 27 30 33 35 36 37 39 41 43 44 45 45 45 46 47 46 45 42 40 38 38 37 36 37 36 34 33 33 31 31 31 30 28 28 28 29 28 28 28 27 27 27 27 26 26 25 24 23 23 22 22 21 19 17 16 15 15 15 15 16 16 16 16
16 16 16 15 15 14 14 15 16 16 16 16 15 15 15 17 18 19 19 19 21 23 25 28 30 33 35 36 38 40 41 42 44 45 44 44 45 46 47 46 43 39 38 38 40 40 38 37 37 36 34 33 32 30 29 29 29 29 29 29 29 28 27 27 27 27 27 26 25 25 25 25 24 22 20 18 17 16 16 17 17 17 17 17 17
18 19 19 18 18 17 16 16 16 16 16 16 16 16 16 16 17 19 20 19 20 22 23 25 27 29 32 34 37 39 40 40 43 44 45 44 43 44 47 48 46 43 40 40 43 44 41 40 41 39 37 35 34 32 32 30 29 29 29 29 30 30 28 27 28 28 28 27 26 26 27 26 25 23 21 19 18 17 17 18 17 18 18 17 17
19 20 21 21 21 21 21 20 19 18 18 17 17 17 18 17 17 17 18 19 21 22 22 24 25 26 29 32 34 37 38 39 41 43 44 45 44 43 44 47 48 47 45 43 45 47 43 42 43 41 38 37 35 34 33 31 30 29 29 29 30 31 29 28 28 29 29 28 28 28 28 27 26 24 22 20 19 18 19 19 19 19 19 18 18
20 21 21 22 23 23 24 23 23 22 21 20 20 20 20 20 20 19 18 18 20 21 21 22 24 24 26 28 31 34 36 38 40 42 42 44 45 44 43 44 46 48 48 46 47 48 45 43 44 42 40 38 36 35 34 32 30 30 30 29 30 31 30 29 29 30 30 30 29 30 30 28 27 25 24 22 21 20 20 20 20 20 20 19 20
21 22 22 22 23 24 24 25 25 25 24 24 23 23 22 22 22 22 22 21 21 21 21 21 21 23 25 27 28 30 31 34 38 40 42 43 44 45 45 44 45 46 48 48 50 51 48 46 46 44 41 39 37 37 35 33 31 31 30 30 30 32 32 31 31 32 32 32 31 32 31 30 29 27 25 24 23 22 21 21 21 20 21 21 21
23 23 23 24 24 24 24 24 25 25 26 26 25 25 25 25 24 24 25 25 25 25 24 22 21 21 23 26 27 28 27 30 33 35 38 41 42 44 46 46 46 46 45 47 50 51 49 47 46 46 43 40 39 38 36 34 33 32 31 30 31 33 34 34 33 33 34 34 34 34 33 32 31 29 27 26 24 23 23 22 22 21 21 22 22
24 25 25 26 26 27 27 27 26 26 26 26 26 26 26 26 26 26 26 26 27 28 28 27 25 24 24 25 27 27 26 28 31 31 33 36 39 42 45 47 49 49 47 46 48 49 48 47 46 46 46 44 42 41 39 37 35 34 34 32 32 33 35 35 35 35 36 36 36 36 36 35 33 32 30 28 26 25 25 23 22 22 22 23 24
26 27 28 29 29 30 30 30 30 30 29 29 28 27 27 27 27 27 27 27 28 29 29 30 29 28 28 28 28 27 26 28 30 30 31 32 34 38 42 45 48 50 49 48 48 48 48 47 47 47 47 47 46 44 42 40 38 37 37 35 33 33 35 36 37 37 37 38 38 38 38 37 36 34 32 31 29 28 26 25 23 23 23 24 24
28 28 29 30 31 32 33 33 34 34 34 34 34 32 30 29 29 29 29 28 28 28 29 30 30 30 30 31 31 30 29 29 31 31 31 32 32 34 38 41 45 48 49 48 49 50 48 47 46 46 46 47 47 46 43 42 41 40 39 38 36 36 35 37 38 39 39 40 40 40 40 39 38 36 34 33 31 30 28 27 25 24 24 25 25
31 31 32 32 33 34 35 36 36 37 37 38 38 38 37 36 35 34 33 32 31 30 30 30 30 31 31 32 32 31 31 32 33 32 32 32 33 33 36 38 40 44 46 47 49 50 50 49 48 46 45 45 46 46 45 45 44 43 42 41 40 38 38 38 39 40 41 42 43 42 42 42 40 38 37 35 34 32 30 28 27 26 25 25 26
34 35 36 37 37 38 38 39 40 40 41 41 41 42 42 41 41 41 40 38 37 35 34 33 32 31 32 33 33 32 31 32 34 34 34 34 34 34 36 37 38 39 42 44 46 47 49 51 51 49 48 47 48 48 47 47 47 46 46 45 44 42 41 40 40 41 42 44 46 46 45 44 43 41 40 38 36 34 33 30 29 27 26 26 26
37 38 39 40 41 42 43 43 43 43 44 45 45 45 45 45 45 46 46 45 44 42 40 38 37 35 34 34 34 34 33 33 33 33 33 34 35 36 36 36 36 38 40 43 43 44 47 49 51 52 52 51 50 51 50 49 48 49 50 50 49 46 43 41 41 41 43 46 49 49 47 45 44 43 42 40 39 37 35 33 31 29 28 27 27
38 40 42 43 44 45 46 46 46 47 47 47 48 47 47 47 47 48 49 49 49 49 48 46 44 42 40 39 37 36 36 35 35 34 33 33 34 36 37 36 36 37 40 42 43 44 46 47 50 51 52 52 52 52 52 51 52 54 55 54 51 47 44 43 42 42 44 48 50 51 50 48 47 46 45 44 42 40 37 35 33 31 29 28 28
40 42 43 45 47 48 49 49 49 49 50 50 50 49 49 48 49 49 50 51 52 53 53 53 51 49 47 45 43 41 39 38 37 35 34 33 33 35 36 35 36 38 40 41 43 45 46 47 49 50 51 52 54 55 56 58 59 60 57 54 51 48 46 45 44 45 47 48 50 52 53 52 50 49 48 47 45 42 40 38 35 33 31 29 29
43 44 45 47 48 49 50 51 52 52 52 52 52 51 51 50 50 50 51 52 53 54 55 55 56 55 54 52 49 47 44 42 40 38 37 36 35 35 34 33 34 38 41 42 44 45 47 48 49 49 50 54 56 58 60 62 61 60 58 56 54 52 50 48 48 49 49 49 51 53 54 54 53 51 51 49 47 44 43 40 38 35 32 30 30
47 48 49 50 50 50 51 52 53 54 54 54 54 54 53 53 52 52 52 52 53 54 54 55 56 57 57 56 55 53 51 48 45 42 40 38 37 37 35 33 32 35 39 43 45 46 46 49 50 48 50 55 57 58 59 60 60 59 60 59 56 55 54 53 53 52 51 50 51 52 53 53 54 55 54 52 49 47 45 43 40 37 33 31 31
49 50 52 52 53 53 53 53 54 54 54 55 55 55 55 55 54 53 53 53 53 53 53 54 56 57 57 56 56 55 55 54 51 48 45 42 40 38 37 36 34 34 37 41 46 48 47 49 50 50 52 55 56 56 58 59 59 60 59 58 57 58 59 58 57 55 52 49 49 50 52 52 55 57 57 54 51 49 47 45 42 38 36 34 34
50 52 53 53 54 54 54 54 54 54 54 54 53 53 54 53 53 53 52 52 51 51 52 53 54 56 56 56 56 56 56 55 54 52 50 47 44 41 39 38 37 37 37 38 43 48 50 50 51 53 55 54 53 53 55 56 57 58 59 60 60 60 61 61 60 57 53 48 47 49 52 53 55 57 58 56 53 51 49 46 44 41 38 37 36
50 51 52 53 54 54 54 54 55 55 55 55 53 53 53 53 53 52 50 50 51 52 52 52 53 54 55 56 56 57 57 56 53 52 52 50 48 45 42 41 41 41 40 39 40 43 48 52 54 56 56 53 51 51 51 52 55 58 60 62 62 61 62 62 60 56 53 51 49 50 53 54 54 56 57 56 53 53 51 48 47 44 41 39 38
49 50 52 53 54 55 55 55 56 57 58 57 55 55 54 54 53 51 48 48 50 52 54 54 54 53 53 54 55 57 58 58 56 53 52 51 49 48 46 45 45 44 43 42 41 41 43 48 54 58 59 54 50 49 49 49 52 55 57 58 59 60 59 59 58 57 57 57 54 52 53 53 51 52 55 55 54 54 53 51 49 47 43 41 40
50 51 52 53 54 56 56 55 56 58 59 58 56 55 54 53 51 49 48 49 50 52 54 56 56 55 53 52 52 54 56 57 58 57 55 52 49 48 48 48 47 47 47 46 44 42 41 41 45 52 57 56 52 48 48 49 50 50 51 53 55 56 57 58 60 60 60 60 58 55 54 52 50 50 54 56 56 56 55 53 51 48 45 43 41
52 52 53 54 55 56 57 56 55 56 59 58 54 52 52 51 48 47 49 51 52 54 56 56 55 55 54 52 51 51 53 56 57 58 57 55 52 50 51 50 49 49 50 49 46 44 41 40 40 42 48 54 55 51 48 48 49 47 47 52 57 58 57 58 60 60 61 61 60 58 54 52 52 53 55 56 56 56 56 54 52 50 47 45 42
53 54 54 55 57 57 55 55 53 53 56 56 52 49 49 48 46 45 47 49 52 55 57 57 56 54 55 55 53 52 53 54 54 55 55 54 53 53 53 52 52 52 51 50 48 46 43 41 41 40 42 47 53 55 51 49 49 47 48 53 57 57 57 59 60 59 59 61 62 58 54 52 54 54 54 53 54 56 57 55 52 50 48 46 44
53 55 55 55 58 58 54 51 50 49 50 51 48 45 44 43 40 39 40 43 47 49 51 52 54 55 56 58 57 55 53 51 50 49 49 49 52 54 54 53 54 55 54 51 48 47 45 43 43 43 42 42 46 52 55 53 50 50 52 55 55 55 58 61 60 56 54 59 63 60 54 53 55 54 53 51 50 53 55 54 51 50 49 47 45
Wind_Direction
245 247 249 250 250 251 252 250 244 241 242 241 240 240 241 237 231 233 236 234 233 231 231 232 233 236 237 238 237 239 242 245 249 249 251 258 261 262 262 263 263 263 265 267 269 270 271 268 265 266 268 254 226 229 213 188 213 207 227 243 249 250 236 215 197 182 180 192 189 191 196 196 186 172 170 182 189 190 189 192 193 193 192 193 197
248 249 251 252 252 252 252 251 247 242 242 243 242 241 241 240 234 235 238 236 234 233 234 234 235 236 238 239 239 239 242 244 247 247 246 252 258 260 261 263 262 263 264 264 267 267 264 258 257 253 237 231 212 209 191 177 234 247 193 203 199 207 210 196 192 182 195 207 200 196 191 183 182 176 174 184 188 187 191 195 195 199 198 197 200
250 251 252 253 254 254 252 252 249 245 243 243 243 241 241 241 238 237 240 239 236 234 236 236 236 237 238 240 240 240 241 243 245 246 245 246 253 257 259 263 264 265 265 265 268 267 264 257 251 240 220 223 211 205 203 184 210 236 186 192 192 184 180 175 182 176 205 220 206 195 185 169 175 185 184 182 183 183 189 195 197 202 205 206 208
252 253 253 253 255 255 254 253 251 246 244 245 245 243 242 241 239 236 238 238 235 235 237 238 237 238 238 240 240 241 242 243 245 246 245 247 251 255 258 263 266 267 267 267 267 265 264 256 248 245 231 221 208 204 215 199 193 206 202 209 197 200 207 187 177 174 197 217 201 192 181 171 180 190 191 187 184 180 183 191 194 198 204 207 209
255 255 253 253 255 256 256 256 255 248 244 246 247 247 244 242 240 236 235 235 234 234 236 238 237 237 238 240 241 242 243 245 247 248 248 250 253 257 260 264 267 268 268 266 265 263 261 257 255 256 241 220 206 204 214 209 199 204 204 208 205 219 221 199 187 178 181 180 173 177 175 182 194 190 191 198 194 188 188 192 195 197 202 208 211
259 257 255 254 255 256 258 259 260 253 246 247 249 250 248 245 243 238 236 237 236 236 238 239 238 239 239 240 242 242 244 246 248 250 252 254 255 259 262 265 268 267 268 265 264 262 259 259 256 248 237 224 217 209 206 202 198 201 204 208 204 206 217 201 187 179 185 184 164 168 180 192 203 195 192 201 201 199 197 195 198 199 202 209 214
262 260 257 256 257 258 259 262 264 258 249 248 251 252 252 248 245 241 239 239 239 238 239 240 240 240 241 242 243 243 246 247 248 250 253 256 256 258 261 263 265 266 267 265 263 262 259 257 246 235 231 230 228 219 212 208 201 200 203 206 200 197 203 192 191 195 192 192 182 178 189 196 202 200 204 209 207 204 203 200 199 198 199 204 212
260 259 258 257 258 259 260 263 266 261 254 252 253 254 255 252 248 244 241 240 241 241 240 240 240 240 241 242 243 245 247 248 248 249 252 255 256 257 259 260 264 266 267 266 264 262 259 254 242 233 229 229 232 227 221 217 213 213 207 201 200 198 199 191 195 203 188 187 191 187 194 201 206 210 214 217 213 210 212 210 205 204 206 207 213
258 259 259 258 259 260 262 264 265 262 260 259 258 257 257 255 252 248 244 241 242 243 242 241 241 240 241 242 244 245 247 248 248 250 251 254 255 256 257 257 262 267 269 267 265 262 258 252 241 234 229 226 229 231 229 226 223 222 213 206 203 195 200 200 193 196 197 199 201 198 207 212 216 221 222 223 219 221 227 223 219 222 223 222 225
259 260 260 260 260 261 263 264 264 263 264 264 262 260 257 256 254 251 248 243 242 243 244 244 243 243 242 243 244 245 246 248 249 250 251 253 255 256 257 258 262 266 267 266 264 262 258 252 242 235 231 228 229 231 233 235 233 227 217 215 207 195 206 212 205 208 213 215 212 211 220 221 223 228 226 228 226 227 235 236 234 234 233 232 232
260 261 262 262 262 262 263 264 264 263 264 264 262 260 258 257 256 254 251 247 244 244 244 244 244 244 243 242 244 244 246 248 249 250 251 254 255 256 257 261 264 265 265 265 264 263 259 254 246 238 235 233 233 233 232 233 234 229 218 216 209 197 202 213 215 219 222 223 223 225 230 229 228 229 228 230 229 227 229 232 235 235 234 234 234
260 262 263 263 264 264 265 265 265 264 264 263 262 262 261 260 259 257 253 249 245 242 240 241 242 242 242 242 243 244 246 247 248 249 251 253 254 254 257 259 263 263 263 264 264 264 261 255 248 242 237 235 233 233 232 231 231 228 217 209 207 201 197 201 212 218 224 232 238 239 238 235 231 230 230 230 227 223 223 227 232 235 236 238 239
259 261 263 264 265 266 267 267 266 266 265 264 265 265 264 263 261 258 254 251 247 243 240 238 238 238 239 240 243 245 245 245 246 249 250 251 252 252 255 257 259 261 261 262 262 262 260 255 249 243 240 237 235 234 234 233 230 227 218 208 204 204 200 201 213 222 244 268 275 264 248 240 240 240 238 232 225 223 225 229 232 235 238 238 238
260 261 263 265 266 267 268 268 267 267 267 266 265 264 263 262 260 257 255 252 249 246 242 238 237 238 239 239 240 242 244 245 247 248 248 249 250 251 252 255 256 257 258 259 260 259 257 255 250 246 243 240 238 239 238 237 234 227 221 213 206 205 202 211 228 245 277 294 296 284 273 263 252 246 241 234 229 228 226 227 230 233 237 236 235
254 255 257 260 263 265 266 267 267 267 267 266 265 263 263 262 261 259 257 253 248 245 244 242 240 239 237 236 238 240 243 245 246 247 248 249 250 250 251 254 255 255 255 256 257 257 257 256 252 247 245 243 240 241 241 240 238 230 224 218 214 210 206 224 247 261 278 289 293 289 286 281 266 250 242 237 230 227 225 226 229 232 235 234 234
247 246 246 248 251 256 260 263 264 265 266 266 265 265 265 264 263 262 259 254 249 247 245 243 241 239 234 230 233 237 240 244 246 245 246 248 249 249 251 253 254 254 254 254 255 256 257 257 254 249 246 243 240 240 241 241 239 233 226 220 221 221 215 231 255 267 275 284 290 288 286 285 275 257 247 242 234 228 227 227 228 230 232 231 231
253 247 244 242 243 244 249 254 257 261 263 264 265 266 266 266 265 264 262 258 255 253 249 244 244 243 239 233 230 233 239 244 246 245 245 246 247 248 249 251 252 253 252 252 253 253 253 254 253 250 247 244 240 240 240 240 239 235 229 223 225 230 233 242 258 268 272 277 283 286 284 283 277 264 252 247 241 235 233 234 234 235 237 235 234
290 267 253 244 241 239 241 245 249 254 257 261 264 264 264 265 266 265 263 263 260 255 251 249 248 245 242 240 240 242 246 246 243 241 243 244 245 246 247 249 250 251 251 250 250 250 250 250 249 248 247 246 243 241 241 241 240 236 232 227 227 234 241 247 256 263 267 270 276 280 280 279 276 267 257 252 250 246 243 245 248 249 251 249 248
5 344 300 262 248 239 238 240 242 247 251 256 260 261 263 264 266 266 265 265 261 255 253 253 250 246 244 244 244 244 247 247 243 241 242 243 244 245 246 247 249 249 250 249 248 248 248 247 245 245 246 247 245 243 242 242 242 239 235 232 231 235 241 247 252 257 262 266 271 271 271 273 271 263 256 253 253 251 251 253 257 260 262 263 266
23 13 4 344 305 263 248 243 241 244 247 251 255 258 260 261 263 264 265 264 261 258 256 254 252 251 251 249 246 243 243 245 247 247 247 248 249 247 246 247 247 248 248 248 247 247 247 245 244 244 246 247 246 244 242 241 243 242 239 236 235 237 241 246 250 254 259 263 265 264 263 264 262 256 249 246 243 240 248 258 263 266 270 274 276
26 17 9 1 350 332 299 267 253 247 247 251 253 255 256 257 259 261 262 262 262 260 258 256 255 255 255 253 251 247 243 243 245 247 248 249 250 249 249 246 245 248 249 249 249 249 246 243 243 243 245 246 247 245 242 241 241 240 240 238 237 239 241 245 248 252 256 259 259 258 257 257 257 254 247 240 236 234 242 253 258 262 271 278 281
18 14 6 358 353 345 334 315 292 266 254 252 252 253 254 256 257 259 261 262 262 261 259 258 257 257 256 255 254 251 246 243 242 243 245 246 247 250 252 250 250 255 255 254 255 252 247 243 242 243 244 246 247 247 244 242 242 240 239 239 239 240 242 244 247 250 252 254 254 253 252 251 253 254 249 241 239 240 244 250 254 260 269 276 282
3 1 357 353 348 341 334 327 318 300 280 264 256 254 252 254 256 257 259 260 260 261 260 259 258 257 256 254 254 253 251 249 247 246 247 247 248 249 251 253 255 258 259 259 256 251 247 245 244 243 243 245 247 247 246 244 243 241 240 238 238 240 241 243 245 246 248 249 249 247 247 247 248 249 249 246 246 248 251 254 260 266 272 277 282
2 356 353 349 346 341 332 324 317 309 297 281 268 261 255 253 252 253 255 257 258 259 259 259 258 257 257 256 255 255 254 254 253 253 252 253 253 253 254 255 255 257 258 257 254 250 248 246 245 244 242 243 246 247 247 246 245 243 241 239 237 238 240 241 241 242 242 243 243 242 242 243 243 244 247 249 251 253 255 260 265 270 273 276 277
8 3 359 353 347 342 335 328 318 309 299 286 275 268 262 258 254 252 252 254 256 257 258 258 258 258 258 258 258 257 256 255 254 254 253 254 254 254 255 255 256 258 257 255 253 251 248 246 245 243 241 242 244 246 247 248 248 246 244 240 237 237 239 239 239 238 238 237 237 237 237 239 240 241 244 247 251 253 256 260 264 266 267 267 268
8 5 2 359 354 348 341 335 329 320 310 297 285 275 268 263 260 258 255 254 255 256 257 258 257 257 257 257 258 258 258 256 255 254 253 252 252 252 254 254 255 255 254 253 251 248 247 249 248 245 243 243 243 245 247 249 251 249 247 243 238 236 237 237 238 236 233 232 232 233 234 235 237 239 242 245 249 252 254 257 260 262 262 262 261
3 360 357 355 353 351 347 344 340 334 326 315 302 290 280 272 267 263 260 258 257 256 257 257 256 256 256 256 256 257 257 257 256 255 254 254 254 254 254 254 253 253 252 250 248 247 248 250 250 247 246 245 245 247 248 249 251 251 249 244 240 237 235 236 236 234 230 228 228 228 230 232 233 237 241 245 248 251 254 257 258 260 261 261 260
359 356 354 352 349 347 345 343 341 339 335 329 320 309 296 284 278 273 268 263 260 259 258 258 256 256 255 256 256 255 255 256 256 256 256 255 255 255 255 254 252 252 252 250 248 248 249 249 249 249 248 247 247 247 247 248 250 251 250 246 243 240 236 236 235 233 229 226 225 225 227 229 231 235 239 242 246 248 252 255 257 259 260 260 259
354 352 350 350 348 346 344 341 338 336 334 332 328 323 314 302 292 285 279 272 266 263 262 260 259 257 256 255 255 255 255 254 255 255 255 256 255 255 254 254 253 252 251 251 251 252 252 252 253 254 253 251 249 247 247 248 250 251 251 248 246 242 238 237 236 233 229 226 224 224 226 229 231 234 237 239 242 243 246 251 253 254 256 257 257
353 350 347 346 344 344 344 342 340 337 334 332 328 326 322 317 310 300 291 283 274 269 266 264 263 261 259 257 255 255 255 254 253 253 254 254 254 254 253 254 254 252 251 252 256 257 256 256 258 258 258 257 253 250 249 250 250 252 252 250 248 244 239 237 236 233 230 227 224 224 225 229 232 234 236 237 238 239 242 246 248 249 251 251 251
352 349 347 345 343 342 341 340 339 338 336 334 331 327 324 321 319 314 307 296 285 278 272 268 267 265 263 261 258 257 256 255 253 252 252 253 253 253 252 253 253 252 251 252 255 258 257 257 259 260 261 260 256 252 250 250 250 251 252 251 249 245 240 238 237 233 230 228 225 224 225 228 230 232 233 234 235 236 238 242 244 245 246 246 246
348 347 346 345 343 341 340 338 336 335 334 334 332 330 327 324 321 319 316 310 302 294 285 275 270 268 267 265 262 260 259 257 254 253 251 251 251 252 251 251 251 251 251 250 252 256 257 258 260 262 261 260 256 252 249 248 248 249 250 250 248 245 240 238 237 234 231 229 226 225 226 228 229 230 231 231 232 233 236 239 242 242 243 243 243
341 340 340 339 339 338 337 336 334 333 332 331 330 329 327 326 324 321 319 316 312 308 302 293 282 276 273 270 267 265 263 261 258 256 254 251 251 251 250 249 249 249 249 249 250 254 255 256 257 259 259 257 254 251 248 245 245 247 248 246 244 243 242 240 238 234 231 229 227 226 226 228 230 231 231 231 232 232 235 238 241 242 241 240 240
334 333 332 331 331 330 330 330 330 329 328 327 327 326 324 323 321 320 319 318 315 313 310 306 301 293 285 278 273 270 267 265 262 260 257 255 253 251 249 248 248 247 247 248 250 252 253 253 254 255 256 255 252 249 248 247 247 247 247 246 244 243 243 241 239 236 232 229 228 227 227 228 230 232 232 233 233 234 235 237 240 242 242 240 240
330 329 328 327 326 324 323 323 322 322 322 322 321 321 320 319 318 317 316 314 313 313 312 311 309 306 299 291 284 278 273 269 266 264 262 258 256 254 252 249 248 247 246 247 249 251 253 253 252 253 253 253 252 250 249 249 248 247 247 247 245 243 243 242 240 237 233 230 229 228 227 229 230 232 232 233 234 235 236 238 240 241 242 242 242
328 327 326 325 324 323 321 320 319 318 317 317 316 315 315 314 313 312 312 310 308 307 307 308 309 309 306 301 296 292 286 277 271 268 265 262 259 257 255 253 251 248 246 246 246 248 251 252 252 251 251 252 253 251 249 248 247 246 245 245 244 242 241 241 240 238 234 231 230 229 228 228 230 231 232 233 234 235 237 238 240 241 243 243 243
328 327 326 325 323 322 321 320 319 317 316 314 313 312 311 310 309 308 307 306 305 304 303 302 303 304 304 303 301 300 296 290 283 277 271 266 262 260 258 257 255 253 251 247 245 245 249 251 251 250 250 249 250 250 248 247 247 245 243 242 241 240 239 238 237 237 235 232 231 230 229 228 229 231 232 233 233 235 236 237 239 241 242 243 243
327 327 326 325 323 321 320 319 317 315 314 312 311 309 309 308 307 306 304 303 302 301 300 299 299 298 298 298 299 299 298 295 293 289 283 275 268 262 259 259 260 260 258 253 247 245 246 248 249 250 249 247 248 248 248 247 247 246 243 240 238 236 236 235 235 235 235 234 233 230 229 228 228 230 232 232 233 234 235 236 237 239 241 242 242
325 324 322 321 320 318 316 315 314 312 310 309 308 306 306 305 304 303 303 302 301 300 297 296 295 295 294 294 294 295 294 294 294 294 292 287 279 270 263 260 262 263 263 259 254 249 245 246 247 248 247 247 247 248 249 248 246 245 243 240 237 235 234 234 234 233 234 235 234 232 230 229 229 230 232 232 233 233 234 234 235 237 238 240 241
321 319 318 317 315 313 312 310 309 307 305 304 303 302 301 301 300 299 299 299 299 298 297 295 293 292 291 290 290 290 290 291 291 291 291 291 288 281 273 266 262 262 262 261 259 254 248 245 245 246 246 246 245 245 246 243 240 239 238 236 236 237 237 237 235 234 233 234 234 233 231 229 228 229 230 232 232 232 233 234 234 235 236 238 239
316 315 314 312 311 310 308 307 305 303 302 300 299 298 297 296 295 294 294 294 295 295 295 294 293 291 290 288 287 286 287 288 288 288 287 287 287 286 282 275 266 261 260 259 258 256 251 247 244 244 244 243 242 241 240 240 240 241 239 237 238 238 237 237 236 235 234 233 233 233 232 231 229 229 230 231 232 232 232 233 233 234 236 237 238
314 313 311 309 308 307 305 304 303 301 300 299 298 297 296 295 293 292 291 290 290 291 291 291 291 290 290 288 286 285 284 284 284 284 284 283 282 283 283 280 272 264 260 258 256 254 252 248 244 241 240 240 240 240 239 241 242 242 240 239 238 237 234 233 234 234 233 232 232 233 233 232 231 231 231 232 232 232 233 234 234 236 236 237 238
313 312 310 308 306 304 303 301 300 299 298 297 296 295 294 293 293 292 291 290 288 287 287 287 287 288 288 288 287 285 284 282 281 282 282 281 280 279 279 278 275 268 261 257 255 253 251 249 247 242 239 239 239 239 239 241 241 240 241 240 238 236 234 233 233 233 232 231 232 233 234 234 233 232 232 232 232 233 234 236 236 236 236 236 237
312 310 309 307 306 304 302 300 299 297 296 295 294 293 292 292 292 293 293 292 290 288 286 284 283 284 284 284 284 284 283 282 281 280 279 278 278 277 277 276 273 270 264 258 254 251 250 249 247 244 241 241 239 237 237 238 239 239 239 238 237 236 236 236 236 236 235 233 232 235 236 235 233 233 233 232 232 233 234 236 236 235 234 234 236
310 308 307 306 305 304 303 301 300 298 296 295 294 293 293 293 294 294 294 293 291 288 286 283 282 281 281 281 281 281 281 281 280 280 278 277 276 275 276 275 272 269 267 262 256 251 248 248 248 246 244 243 241 238 238 237 237 237 237 237 237 235 235 237 238 239 239 236 235 236 236 235 233 233 233 232 232 232 233 234 234 233 232 232 235
308 307 307 306 305 304 303 301 300 298 296 296 295 294 294 293 293 293 293 291 288 286 284 282 281 280 279 279 279 279 279 278 278 277 276 276 275 275 274 273 272 270 267 265 260 254 248 245 246 247 246 245 244 243 242 239 238 238 238 238 238 236 237 240 242 241 241 240 238 236 236 235 233 233 234 233 231 231 232 232 232 232 231 231 233
308 307 306 305 304 303 302 300 298 297 297 296 295 294 293 292 291 291 290 288 285 283 281 280 278 278 277 277 276 276 277 276 275 274 273 273 273 274 272 271 272 271 268 266 263 260 254 248 247 247 246 245 246 246 245 244 242 241 242 243 244 244 244 245 243 240 239 239 236 233 234 236 235 235 237 234 231 230 231 229 229 230 230 230 232
308 307 305 304 303 302 300 299 297 295 296 296 294 293 292 291 291 291 289 286 284 282 280 279 278 277 275 275 274 274 274 273 273 273 272 271 270 269 269 269 269 269 269 267 265 264 262 257 253 251 249 246 244 244 245 246 245 244 243 242 242 242 240 239 238 236 236 235 234 231 232 236 238 238 238 234 230 229 229 227 227 228 229 230 231
309 307 306 304 302 301 299 298 296 295 295 294 294 293 292 291 291 290 288 286 284 282 280 278 277 276 275 272 271 270 269 269 269 270 271 271 268 265 265 266 266 266 266 267 267 266 264 262 260 257 253 248 244 242 242 245 246 245 240 236 236 235 232 231 233 234 234 234 233 230 230 236 240 238 235 232 229 228 227 226 226 226 227 229 230
309 308 306 304 302 300 299 298 297 296 295 295 295 295 294 292 291 290 287 286 284 282 281 280 279 277 275 272 270 268 267 266 267 267 267 267 266 263 262 262 262 262 263 265 266 266 265 264 263 260 256 250 245 241 239 240 243 243 238 237 236 233 229 230 232 233 234 235 234 229 227 234 238 235 230 228 226 225 225 224 223 224 225 226 227
310 308 306 305 303 302 301 301 300 299 298 298 300 300 300 299 296 292 290 287 285 284 284 284 282 280 276 273 270 268 267 266 265 265 264 262 261 260 259 258 258 258 261 263 264 264 265 265 264 263 260 254 247 242 237 236 238 240 240 239 237 233 231 232 232 230 230 233 233 228 226 232 235 231 227 223 220 221 222 221 220 221 223 225 226